Location: Sonoma Vista
(38.3102°N, 122.5103°W)
Time: 09:14:23
(UTC+00:00)

Daily predictions for brighter satellites

Satellite Brightness Start Highest point End
(mag) Time Altitude Azimuth Time Altitude Azimuth Time Altitude Azimuth
STARLINK-1059 4.1 12:03:41 44° NW 12:04:06 46° NW 12:08:06 10° NE
deb Chang Zheng 4 3.6 12:01:11 10° N 12:05:24 54° WNW 12:05:54 51° W
ADEOS 4.0 12:01:07 10° NNE 12:06:18 62° ESE 12:11:26 10° S
CZ-4B R/B 1.3 12:05:40 46° SSE 12:06:36 89° SW 12:10:07 10° NNW
CBERS 1 LM4 rocket 4.4 12:01:55 10° NNE 12:06:51 86° WNW 12:09:52 25° SSW
Cosmos 468 4.4 12:01:30 10° NNW 12:06:51 81° WSW 12:12:10 10° SSE
ASTRO E2 4.5 12:08:00 19° S 12:08:00 19° S 12:09:58 10° SE
STARLINK-1057 4.2 12:08:27 39° WNW 12:09:04 42° NW 12:13:02 10° NE
ATLAS 3B R/B 3.3 12:03:29 13° S 12:09:21 50° ESE 12:15:43 10° NE
Cosmos 1900 4.5 12:09:22 42° WSW 12:10:35 54° WNW 12:15:22 10° NNE
Cosmos 1975 2.8 12:07:50 10° NNW 12:11:47 57° W 12:12:35 46° SW
Cosmos 2227 Rocket 2.7 12:11:03 34° W 12:12:33 40° WNW 12:17:52 10° N
ARIANE 5 R/B 4.0 12:09:47 10° NNW 12:13:22 20° WNW 12:13:22 20° WNW
STARLINK-1034 4.4 12:13:12 35° WNW 12:14:02 39° NW 12:17:57 10° NE
Sich 1 Rocket 3.5 12:10:57 10° NNW 12:15:17 60° W 12:18:20 19° S
STARLINK-1053 4.4 12:13:57 28° S 12:15:41 46° SE 12:19:40 10° ENE
COBE Rocket 4.1 12:16:00 30° SW 12:17:46 43° W 12:22:17 10° NNW
Okean 2 Rocket 3.1 12:15:26 10° N 12:19:56 87° ENE 12:24:28 10° S
Cosmos 1689 Rocket 2.6 12:17:15 10° SSE 12:20:13 60° ENE 12:23:11 10° N
Cosmos 2151 Rocket 4.2 12:16:11 10° N 12:20:32 57° E 12:24:51 10° SSE
STARLINK-1061 4.2 12:18:43 27° SSW 12:20:38 51° SE 12:24:40 10° ENE
FALCON 9 DEB 3.0 12:20:19 31° NW 12:21:51 84° SW 12:25:17 10° SE
USA 238 DEB 4.3 12:21:52 26° W 12:25:04 40° NW 12:31:30 10° NNE
USA 238 4.2 12:21:56 26° W 12:25:09 41° NW 12:31:38 10° NNE
STARLINK-1067 4.0 12:23:30 26° SSW 12:25:37 57° SE 12:29:40 10° NE
Cosmos 1300 Rocket 3.5 12:22:28 10° N 12:26:48 84° E 12:31:07 10° S
STARLINK-1058 3.9 12:28:16 25° SSW 12:30:32 64° SE 12:34:39 10° NE
Cosmos 1980 4.4 12:26:11 10° NW 12:30:59 29° WSW 12:35:44 10° SSW
ATLAS 5 CENTAUR R/B 2.6 12:24:31 10° SSW 12:31:12 52° SE 12:33:50 10° NE
USA 234 3.2 12:28:42 10° SE 12:35:15 81° SW 12:41:49 10° NW
STARLINK-1043 3.7 12:33:04 23° SW 12:35:32 71° SE 12:39:39 10° NE
STARLINK-1065 3.7 12:34:16 23° SW 12:36:47 73° SE 12:40:54 10° NE
Okean 3 3.9 12:36:42 23° SW 12:38:41 38° WNW 12:42:35 10° N
Cosmos 1356 3.3 12:36:10 10° N 12:39:36 89° ESE 12:43:01 10° S
Cosmos 1378 Rocket 4.0 12:36:32 10° S 12:40:46 62° E 12:45:05 10° NNE
PSLV R/B 4.2 12:37:50 10° N 12:41:51 36° WNW 12:44:27 19° SW
STARLINK-29 3.4 12:42:09 23° WNW 12:43:40 39° SW 12:46:44 10° SSE
CZ-4B R/B 4.2 12:39:48 10° NNE 12:43:43 62° E 12:47:26 10° S
OE (NEXTSAT) 4.5 12:43:02 20° WNW 12:45:11 52° SSW 12:48:35 10° SE
STARLINK-1063 3.6 12:42:37 20° SW 12:45:27 87° SE 12:49:36 10° NE
PAYLOAD A 4.3 12:40:44 10° N 12:45:59 53° WNW 12:51:05 10° SSW
Cosmos 1867 4.3 12:41:58 10° SSW 12:47:15 55° ESE 12:52:34 10° NE
Cosmos 2082 4.4 12:43:44 18° WSW 12:47:16 36° WNW 12:52:32 10° N
SL-16 R/B 2.1 12:41:48 10° NNW 12:47:25 67° WSW 12:53:01 10° S
Meteor 1-31 Rocket 3.0 12:45:03 10° NNE 12:49:00 75° ESE 12:52:54 10° S
STARLINK-1064 3.6 12:47:23 18° SW 12:50:25 85° NW 12:54:34 10° NE
Chandra Rocket (1) 4.3 12:41:59 15° WSW 12:53:11 41° S 12:58:02 10° ESE
Cosmos 1092 Rocket 4.0 12:46:57 10° S 12:53:18 80° W 12:59:39 10° N
Meteor 1-4 Rocket 2.9 12:51:18 10° SSW 12:54:55 48° W 12:58:35 10° N
STARLINK-1041 3.6 12:52:11 16° SW 12:55:25 78° NW 12:59:34 10° NE
STARLINK-1038 3.6 12:56:58 14° WSW 13:00:23 71° NW 13:04:32 10° NE
BREEZE-M DEB (TANK) 3.5 13:01:26 11° WNW 13:03:36 18° NNW 13:05:16 10° NNE
CZ-2C R/B 2.8 13:00:25 10° N 13:04:37 37° WNW 13:08:48 10° SW
STARLINK-1046 3.7 13:01:45 13° WSW 13:05:23 64° NW 13:09:30 10° NE
CENTAUR R/B 3.1 13:01:10 12° WSW 13:06:12 40° NW 13:12:37 10° NNE
CZ-4B R/B 3.1 13:02:38 10° NNE 13:06:57 89° W 13:11:25 10° SSW
Cosmos 1269 Rocket 4.0 13:02:19 10° NNW 13:07:34 62° WSW 13:12:46 10° S
Cosmos 494 Rocket 4.4 13:02:43 10° NNW 13:07:38 41° WSW 13:12:33 10° S
Cosmos 2026 Rocket 3.9 13:02:55 10° S 13:09:04 83° W 13:15:10 10° N
STARLINK-1039 3.8 13:06:31 11° WSW 13:10:21 58° NW 13:14:27 10° NE
SeaSat 1 2.6 13:06:17 10° S 13:11:02 49° WSW 13:15:50 10° NW
Cosmos 2237 Rocket 3.8 13:10:17 10° WNW 13:12:41 13° W 13:15:07 10° WSW
STARLINK-1045 3.9 13:11:18 10° WSW 13:15:20 53° NW 13:19:24 10° NE
Okean 1 Rocket 3.0 13:11:25 10° N 13:15:46 77° W 13:20:08 10° S
Cosmos 1975 Rocket 3.9 13:15:12 10° S 13:19:25 55° E 13:23:41 10° NNE
STARLINK-1050 4.1 13:16:23 10° WSW 13:20:23 47° NW 13:24:25 10° NE
IDEFIX/ARIANE 42P 4.5 13:19:35 10° NW 13:20:49 11° WNW 13:22:03 10° WNW
Cosmos 1428 Rocket 4.5 13:15:06 10° SSW 13:21:12 73° W 13:27:22 10° N
CRYOSAT 2 4.4 13:18:47 10° N 13:23:40 87° W 13:28:31 10° S
STARLINK-1055 4.2 13:21:25 10° WSW 13:25:23 44° NW 13:29:22 10° NE
Cosmos 2263 Rocket 2.2 13:22:10 10° SSW 13:27:48 78° WNW 13:33:31 10° NNE
